{"data":{"norad_id":58781,"epoch":"2026-09-20T11:54:10.418688Z","epoch_age_seconds":152946,"freshness":"FRESH","line1":"1 58781U 24011S   26263.49595392  .00002125  00000+0  74013-4 0  9990","line2":"2 58781  53.1626 187.5629 0001318  83.6226 276.4927 15.34395559150116","mean_motion":15.34395559,"eccentricity":0.0001318,"inclination_deg":53.1626,"raan_deg":187.5629,"arg_perigee_deg":83.6226,"mean_anomaly_deg":276.4927,"bstar":7.4013e-5,"rev_number":15011,"period_min":93.848029704836,"perigee_km":461.81481534347,"apogee_km":463.61806431021,"semimajor_km":6840.8534398268,"source":"CELESTRAK","updated_at":"2026-09-21T09:00:33.977601Z"}}